Regional Weather Roundup
Issued by NWS Charleston, SC

Current Version | Previous Version | Text Only | Print | Product List | Glossary On
Versions: 1 2 3 4 5 6 7 8 9 10 11 12 13 14 15 16 17 18 19 20 21 22 23 24 25 26 27 28 29 30 31 32 33 34 35 36 37 38 39 40 41 42 43 44 45 46 47 48 49 50
000 ASUS42 KCHS 211425 RWRCHS REGIONAL WEATHER ROUNDUP NATIONAL WEATHER SERVICE CHARLESTON SC 1000 AM EDT SUN SEP 21 2014 NOTE: "FAIR" INDICATES FEW OR NO CLOUDS BELOW 12,000 FEET WITH NO SIGNIFICANT WEATHER AND/OR OBSTRUCTIONS TO VISIBILITY. NOT ALL STATIONS ARE QUALITY CONTROLLED BY THE NATIONAL WEATHER SERVICE. USE DATA WITH CAUTION...ESPECIALLY DEWPOINT OBSERVATIONS. SCZ027-030-031-034>040-042>050-211500- ...SOUTH CAROLINA... CITY SKY/WX TMP DP RH WIND PRES REMARKS N CHARLESTON MOSUNNY 75 64 68 NW8 29.98R WATERFRONT PRK N/A 75 N/A N/A NW8G15 N/A FORT JOHNSON NOT AVBL MOUNT PLEASANT FAIR 73 66 78 NW7 29.97R JOHNS ISLAND SUNNY 77 73 88 NW9 29.98R PINOPOLIS N/A 73 64 73 NW9 29.90R MONCKS CORNER N/A 75 66 73 N6 29.98R SUMMERVILLE FAIR 72 64 78 NW3 30.00R BEAUFORT MCAS SUNNY 76 62 62 S7 30.00R BEAUFORT ARPT FAIR 75 64 69 NW9 30.00R HILTON HEAD IS SUNNY 75 64 69 CALM 30.02R GEORGETOWN NOT AVBL WALTERBORO SUNNY 77 57 50 NW5 30.01R ORANGEBURG SUNNY 72 61 68 NW5 29.99S BARNWELL FAIR 75 63 64 W7 30.02R AIKEN FAIR 73 64 73 W5 30.04S MANNING FAIR 75 63 64 NW3 29.98R KINGSTREE NOT AVBL COLUMBIA MOSUNNY 73 63 70 CALM 29.98S SUMTER SUNNY 72 61 69 W6 29.96R FLORENCE MOSUNNY 73 60 63 NW8 29.95R MYRTLE BEACH SUNNY 72 64 78 N12 29.92R N MYRTLE BEACH PTSUNNY 71 65 81 NW8 29.91R $$ GAZ063-065-086>088-099>101-113>116-118-119-134-136>141-150-211500- ...GEORGIA... CITY SKY/WX TMP DP RH WIND PRES REMARKS SAVANNAH ARPT MOSUNNY 74 62 66 NW5 30.02R HUNTER AAF SUNNY 74 63 69 NW6 30.00R FORT STEWART SUNNY 76 61 61 NW7 30.01R STATESBORO NOT AVBL SYLVANIA SUNNY 76 68 77 CALM 30.03S CLAXTON FAIR 77 68 73 CALM 30.03S THOMSON SUNNY 76 69 80 W5 30.07R AUGUSTA-BUSH SUNNY 74 61 63 NW7 30.01S AUGUSTA-DANIEL SUNNY 74 62 66 W3 30.02S SWAINSBORO FAIR 75 66 73 NW6 30.05R VIDALIA SUNNY 77 63 61 W5 30.04S ALMA SUNNY 76 62 62 NW6 30.04R WAYCROSS NOT AVBL JESUP FAIR 79 64 61 CALM 30.03S BRUNSWICK SUNNY 75 64 69 W3 30.05R SAINT SIMONS SUNNY 74 62 66 NW5 30.03R $$ SCZ027-028-034-036>038-045-046-048>050-GAZ119-141-211500- ...LAKE AND SUPPLEMENTAL COASTAL OBSERVATIONS... STATION/POSITION TIME TEMP WIND PRES WAVE SWELL AIR SEA DIR/SP/G HT/PER HT/PER/DIR (UTC) (F) (DEG/KT/KT) (MB) (FT/S) (FT/S/D) UPR LAKE MARION NOT AVBL WINYAH BAY 1400 72 310/ 7 1013.0S LAKE MURRAY 1300 69 280/ 3/ 5 1014.9S ACE BASIN NERRS 1400 71 290/ 2 1016.0R FORT PULASKI 1400 73 310/ 9/ 11 1016.3R SAPELO ISLAND 1400 76 330/ 6 1017.0R $$ ANZ835-935-AMZ111-154-330-350-352-354-374-450-454-472-211500- ...C-MAN AND BUOY OBSERVATIONS... STATION/POSITION TIME TEMP WIND PRES WAVE SWELL AIR SEA DIR/SP/G HT/PER HT/PER/DIR (UTC) (F) (DEG/KT/KT) (MB) (FT/S) (FT/S/D) FOLLY BEACH CMAN 1400 75 330/ 6/ 9 1015.3R BUOY 41004 1400 74 81 320/ 17/ 21 1013.2R 6/ 7 3/ 8 BUOY 41008 1400 76 83 340/ 10/ 14 1016.1R 4/ 6 3/ 70/ 6 5E ST. MARYS GA 1400 83 N/A 4/ 9 FRYING PAN BUOY NOT AVBL BUOY 41025 1400 76 330/ 21/ 25 1005.7R 8/ 8 5/100/ 9 CAPE LOOKOUT NC 1400 73 330/ 18/ 20 1008.5R BUOY 41002 1336 79 82 250/ 21/ 25 1009.5R 11/ 8 BUOY 41010 1400 80 84 310/ 6/ 8 1015.5R 4/ 8 3/ 10/ 8 BUOY 41012 NOT AVBL ST AUGUSTINE FL 1400 76 330/ 8/ 10 1017.5R CAPERS NEARSHORE 1300 72 330/ 14/ 17 N/A FRIPP NEARSHORE NOT AVBL $$

USA.gov is the U.S. government's official web portal to all federal, state and local government web resources and services.